Location: *
(45.5667°S, 177.5167°W)
Time: 17:27:20
(UTC+00:00)

USA 308 - Pass Details

Date: 29 May 2022
Orbit: 549 x 558 km, 54.0° (Epoch: 14 June)

Event Time Altitude Azimuth Distance (km) Brightness Sun altitude
Rises 06:13:40 0° 239° (WSW) 2,754 7.1 -19.7°
Reaches altitude 10° 06:15:59 10° 245° (WSW) 1,853 6.3 -20.1°
Maximum altitude 06:20:01 46° 318° (NW) 758 3.8 -20.8°
Enters shadow 06:22:32 20° 22° (NNE) 1,302 4.6 -21.2°
